Location: College Park
(38.9810°N, 76.9370°W)
Time: 19:36:28
(UTC-04:00)

Vanguard 2 Rocket - All Passes

Search period start: 24 May 2018 00:00
Search period end: 03 June 2018 00:00
Orbit: 553 x 3327 km, 32.9° (Epoch: 24 May)

Date Brightness Start Highest point End Pass type
(mag) Time Alt. Az. Time Alt. Az. Time Alt. Az.
24 May - 00:16:04 10° WSW 00:20:28 36° S 00:27:09 10° SE visible
24 May - 02:29:04 10° WSW 02:33:57 20° SSW 02:40:50 10° SSE visible
24 May - 18:55:07 10° S 18:56:37 11° SSE 18:58:01 10° SE daylight
24 May - 21:05:23 10° SW 21:08:54 31° S 21:12:42 10° ESE visible
24 May - 23:17:19 10° WSW 23:21:16 38° S 23:26:47 10° ESE visible
25 May - 01:29:49 10° WSW 01:34:17 23° SSW 01:40:45 10° SSE night (unlit)
25 May - 20:06:28 10° SW 20:09:56 24° SSE 20:13:12 10° ESE daylight
25 May - 22:18:30 10° WSW 22:22:12 38° S 22:26:46 10° ESE visible
26 May - 00:30:48 10° WSW 00:34:51 26° SSW 00:40:39 10° SE night (unlit)
26 May - 02:46:02 10° SW 02:48:27 12° SSW 02:51:13 10° S night (unlit)
26 May - 19:07:26 10° SSW 19:10:53 19° SSE 19:13:51 10° ESE daylight
26 May - 21:19:33 10° WSW 21:23:12 36° S 21:27:06 10° ESE visible
26 May - 23:31:53 10° WSW 23:35:37 29° S 23:40:39 10° SE visible
27 May - 01:45:37 10° SW 01:48:44 14° SSW 01:52:38 10° S night (unlit)
27 May - 18:08:24 10° SSW 18:11:43 16° SSE 18:14:28 10° SE daylight
27 May - 20:20:22 10° WSW 20:24:14 32° S 20:27:47 10° ESE daylight
27 May - 22:32:58 10° WSW 22:36:32 32° S 22:40:53 10° ESE visible
28 May - 00:46:01 10° WSW 00:49:16 17° SSW 00:53:24 10° SSE night (unlit)
28 May - 17:09:32 10° S 17:12:22 13° SSE 17:14:47 10° SE daylight
28 May - 19:20:57 10° SW 19:25:13 28° S 19:28:41 10° ESE daylight
28 May - 21:33:53 10° WSW 21:37:32 35° S 21:41:24 10° ESE visible
28 May - 23:46:46 10° WSW 23:49:58 20° SSW 23:54:01 10° SSE visible
29 May - 16:11:44 10° SSE 16:12:49 10° SSE 16:13:51 10° SSE daylight
29 May - 18:21:17 10° SW 18:26:05 25° SSE 18:29:42 10° ESE daylight
29 May - 20:34:32 10° WSW 20:38:33 36° S 20:42:12 10° ESE daylight
29 May - 22:47:36 10° WSW 22:50:51 24° SSW 22:54:40 10° SE visible
30 May - 17:21:28 10° SSW 17:26:48 22° SSE 17:30:39 10° ESE daylight
30 May - 19:34:53 10° WSW 19:39:33 36° S 19:43:14 10° ESE daylight
30 May - 21:48:21 10° WSW 21:51:50 29° S 21:55:29 10° SE visible
31 May - 00:02:38 10° SW 00:04:19 12° SSW 00:06:11 10° S night (unlit)
31 May - 16:21:39 10° SSW 16:27:17 19° SSE 16:31:25 10° ESE daylight
31 May - 18:34:53 10° SW 18:40:27 34° S 18:44:24 10° ESE daylight
31 May - 20:48:52 10° WSW 20:52:52 35° S 20:56:28 10° ESE visible
31 May - 23:02:41 10° WSW 23:05:08 16° SSW 23:07:51 10° SSE visible
01 Jun - 15:22:04 10° S 15:27:33 16° SSE 15:31:46 10° ESE daylight
01 Jun - 17:34:36 10° SW 17:41:11 32° S 17:45:35 10° ESE daylight
01 Jun - 19:49:04 10° WSW 19:53:53 39° S 19:57:38 10° ESE daylight
01 Jun - 22:03:03 10° WSW 22:06:06 21° SSW 22:09:14 10° SSE visible
02 Jun - 14:23:12 10° S 14:27:35 13° SSE 14:31:14 10° SE daylight
02 Jun - 16:34:08 10° SW 16:41:44 29° SSE 16:46:41 10° ESE daylight
02 Jun - 18:48:51 10° WSW 18:54:48 41° S 18:58:53 10° ESE daylight
02 Jun - 21:03:20 10° WSW 21:07:08 28° SSW 21:10:33 10° SE visible
